Flag for Philippines Weather past 2 weeks in Mabalacat, Philippines

Now
79 °F

Partly cloudy.


Feels Like: 83 °F
Forecast: 78 / 87 °F
Wind: 3 mph from Northwest

Location: Clarkfield Pampanga International Airport

Current Time: Jul 4, 2015 at 1:52:04 AM

Latest Report: Jul 4, 2015 at 1:00 AM


Visibility: 6 mi

Pressure: 29.62 "Hg

Humidity: 100%

Dew point: 79 °F

Location of MabalacatLocation

Historic Weather in Mabalacat — Graph

°F

Mabalacat temperature yesterday

Maximum temperature yesterday: 93 °F (at 1:00 PM)
Minimum temperature yesterday: 77 °F (at 6:00 PM)
Average temperature yesterday: 83 °F

Past Weeks' High & Low Weather Summary

 TemperatureHumidityPressure
High95 °F (Jun 29, 2:00 PM)100% (Jun 18, 8:00 PM)29.95 "Hg (Jun 18, 8:00 PM)
Low75 °F (Jun 19, 2:00 AM)44% (Jun 28, 2:00 PM)29.59 "Hg (Jul 3, 4:00 PM)
Average82 °F84%29.82 "Hg
* Reported Jun 18 7:00 PM — Jul 3 7:00 PM, Mabalacat, Weather by CustomWeather, © 2015

Note: Actual official high and low records may vary slightly from our data, if they occured in-between our weather recording intervals... More about our weather records

Advertising

Mabalacat weather history for previous 24 hours

 ConditionsComfort  
Time TempWeatherWind HumidityBarometerVisibility
7:00 PM
Fri, Jul 3
77 °FThunderstorms. Partly cloudy.5 mph94%29.65 "Hg5 mi
6:00 PM77 °FLots of rain. Broken clouds.3 mph100%29.65 "Hg4 mi
5:00 PM90 °FBroken clouds.6 mph67%29.59 "HgN/A
4:00 PM91 °FBroken clouds.5 mph59%29.59 "HgN/A
2:00 PM90 °FBroken clouds.6 mph67%29.62 "HgN/A
1:00 PM93 °FBroken clouds.3 mph56%29.65 "HgN/A
12:00 PM90 °FBroken clouds.5 mph63%29.68 "HgN/A
11:00 AM88 °FBroken clouds.5 mph66%29.68 "Hg6 mi
10:00 AM86 °FMore clouds than sun.3 mph70%29.71 "Hg5 mi
9:00 AM84 °FOvercast.3 mph74%29.71 "HgN/A
7:00 AM81 °FPartly sunny.2 mph89%29.71 "HgN/A
6:00 AM79 °FBroken clouds.2 mph94%29.71 "HgN/A
5:00 AM79 °FPassing clouds.2 mph94%29.68 "HgN/A
4:00 AM79 °FPassing clouds.5 mph94%29.71 "HgN/A
3:00 AM79 °FPartly cloudy.2 mph94%29.71 "HgN/A
2:00 AM79 °FPartly cloudy.1 mph94%29.71 "HgN/A
1:00 AM79 °FPartly cloudy.1 mph94%29.74 "HgN/A
Weather by CustomWeather, © 2015

See weather overviewHow to use our weather pages